WMT2020 LATI-LIMJ

Flight info

Callsign WMT2020
Flight time 2h 0m
Altitude 36000
Route DIRES DCT PAPIZ DCT LUMAR DCT BANAV DCT RUPAX DCT NUKNI DCT LOMED DCT RUXOL M730 KALMO
Aircraft A321/M-SDE1E2E3FGIJ1J4RWXY/LB1

Departure

Time 2026-04-21 05:48
Airport Tirana International Airport Mother Teresa (LATI)

Arrival

Time 2026-04-21 07:49
Airport Genoa Cristoforo Colombo Airport (LIMJ)
Time Latitude Longitude Altitude Speed Heading
2026-04-21 04:58 41.41910 19.71524 122 ft 0 kts 264°
2026-04-21 05:38 41.41912 19.71548 120 ft 3 kts 261°
2026-04-21 05:38 41.41919 19.71574 119 ft 3 kts 214°
2026-04-21 05:38 41.41940 19.71582 118 ft 3 kts 175°
2026-04-21 05:39 41.41951 19.71580 125 ft 1 kts 174°
2026-04-21 05:39 41.41952 19.71580 126 ft 0 kts 174°
2026-04-21 05:41 41.41951 19.71580 125 ft 0 kts 174°
2026-04-21 05:42 41.41946 19.71581 130 ft 2 kts 174°
2026-04-21 05:42 41.41927 19.71584 120 ft 4 kts 174°
2026-04-21 05:42 41.41895 19.71588 120 ft 6 kts 174°
2026-04-21 05:42 41.41846 19.71595 120 ft 8 kts 174°
2026-04-21 05:43 41.41777 19.71604 124 ft 12 kts 174°
2026-04-21 05:43 41.41686 19.71616 124 ft 15 kts 174°
2026-04-21 05:43 41.41572 19.71632 125 ft 18 kts 174°
2026-04-21 05:43 41.41446 19.71649 126 ft 18 kts 174°
2026-04-21 05:44 41.41319 19.71666 126 ft 18 kts 174°
2026-04-21 05:44 41.41190 19.71683 127 ft 19 kts 174°
2026-04-21 05:44 41.41058 19.71701 126 ft 19 kts 174°
2026-04-21 05:44 41.40921 19.71722 129 ft 20 kts 171°
2026-04-21 05:45 41.40781 19.71756 132 ft 21 kts 171°
2026-04-21 05:45 41.40635 19.71777 132 ft 21 kts 174°
2026-04-21 05:45 41.40485 19.71796 132 ft 21 kts 174°
2026-04-21 05:45 41.40375 19.71840 132 ft 16 kts 146°
2026-04-21 05:46 41.40283 19.71927 133 ft 16 kts 144°
2026-04-21 05:46 41.40240 19.72044 133 ft 14 kts 86°
2026-04-21 05:46 41.40249 19.72168 133 ft 11 kts 84°
2026-04-21 05:46 41.40279 19.72221 132 ft 7 kts
2026-04-21 05:47 41.40325 19.72210 132 ft 6 kts 354°
2026-04-21 05:47 41.40331 19.72210 132 ft 0 kts 354°
2026-04-21 05:47 41.40335 19.72209 132 ft 3 kts 354°
2026-04-21 05:47 41.40488 19.72189 131 ft 56 kts 354°
2026-04-21 05:48 41.41107 19.72105 132 ft 122 kts 354°
2026-04-21 05:48 41.42131 19.71973 174 ft 169 kts 355°
2026-04-21 05:48 41.43277 19.71826 827 ft 167 kts 356°
2026-04-21 05:48 41.44448 19.71673 1431 ft 170 kts 354°
2026-04-21 05:49 41.45685 19.71508 1750 ft 189 kts 354°
2026-04-21 05:49 41.47072 19.71323 2005 ft 211 kts 353°
2026-04-21 05:49 41.48611 19.71118 2203 ft 233 kts 354°
2026-04-21 05:49 41.50311 19.70892 2349 ft 258 kts 353°
2026-04-21 05:50 41.52159 19.70639 2832 ft 271 kts 351°
2026-04-21 05:50 41.53929 19.69822 3553 ft 270 kts 323°
2026-04-21 05:50 41.55199 19.68044 4363 ft 263 kts 299°
2026-04-21 05:50 41.56104 19.65951 5241 ft 260 kts 295°
2026-04-21 05:51 41.56966 19.63819 6112 ft 259 kts 295°
2026-04-21 05:51 41.57824 19.61698 6917 ft 259 kts 295°
2026-04-21 05:51 41.58676 19.59579 7686 ft 259 kts 295°
2026-04-21 05:51 41.59523 19.57446 8441 ft 260 kts 295°
2026-04-21 05:52 41.60366 19.55299 9188 ft 261 kts 295°
2026-04-21 05:52 41.61198 19.53162 9936 ft 263 kts 295°
2026-04-21 05:52 41.62054 19.50935 10291 ft 279 kts 295°
2026-04-21 05:52 41.62970 19.48525 10428 ft 301 kts 295°
2026-04-21 05:53 41.63686 19.45819 10641 ft 316 kts 278°
2026-04-21 05:53 41.63758 19.42860 11268 ft 317 kts 271°
2026-04-21 05:53 41.63755 19.39906 12004 ft 317 kts 271°
2026-04-21 05:53 41.63748 19.36946 12668 ft 319 kts 271°
2026-04-21 05:54 41.63737 19.33963 13296 ft 322 kts 271°
2026-04-21 05:54 41.63724 19.30953 13901 ft 325 kts 271°
2026-04-21 05:54 41.63713 19.27913 14461 ft 328 kts 271°
2026-04-21 05:54 41.63703 19.24856 15044 ft 330 kts 271°
2026-04-21 05:55 41.63692 19.21771 15623 ft 332 kts 271°
2026-04-21 05:55 41.63681 19.18668 16203 ft 335 kts 271°
2026-04-21 05:55 41.63669 19.15579 16775 ft 337 kts 271°
2026-04-21 05:55 41.63655 19.12426 17344 ft 340 kts 271°
2026-04-21 05:56 41.63639 19.09251 17914 ft 342 kts 271°
2026-04-21 05:56 41.63622 19.06051 18442 ft 345 kts 271°
2026-04-21 05:56 41.63604 19.02829 18927 ft 347 kts 271°
2026-04-21 05:56 41.63586 18.99589 19424 ft 350 kts 271°
2026-04-21 05:57 41.63567 18.96321 19915 ft 352 kts 271°
2026-04-21 05:57 41.63549 18.93034 20388 ft 355 kts 271°
2026-04-21 05:57 41.63531 18.89714 20875 ft 358 kts 271°
2026-04-21 05:57 41.63511 18.86380 21404 ft 361 kts 271°
2026-04-21 05:58 41.63488 18.83001 21925 ft 364 kts 271°
2026-04-21 05:58 41.63463 18.79605 22400 ft 367 kts 271°
2026-04-21 05:58 41.63434 18.76176 22876 ft 369 kts 271°
2026-04-21 05:58 41.63404 18.72728 23325 ft 372 kts 271°
2026-04-21 05:59 41.63370 18.69226 23493 ft 381 kts 271°
2026-04-21 05:59 41.63335 18.65677 23943 ft 380 kts 271°
2026-04-21 05:59 41.63303 18.62129 24407 ft 379 kts 271°
2026-04-21 06:00 41.63242 18.55096 25184 ft 382 kts 271°
2026-04-21 06:00 41.63209 18.51539 25551 ft 383 kts 271°
2026-04-21 06:00 41.63174 18.47956 25914 ft 385 kts 271°
2026-04-21 06:00 41.63137 18.44368 26270 ft 386 kts 271°
2026-04-21 06:01 41.63099 18.40771 26628 ft 388 kts 271°
2026-04-21 06:01 41.63059 18.37159 26994 ft 389 kts 271°
2026-04-21 06:01 41.63017 18.33537 27345 ft 391 kts 271°
2026-04-21 06:01 41.62973 18.29889 27682 ft 392 kts 271°
2026-04-21 06:02 41.62928 18.26237 28018 ft 394 kts 271°
2026-04-21 06:02 41.62883 18.22567 28347 ft 396 kts 271°
2026-04-21 06:02 41.62838 18.18881 28666 ft 397 kts 271°
2026-04-21 06:02 41.62791 18.15174 28977 ft 399 kts 271°
2026-04-21 06:03 41.62743 18.11451 29285 ft 401 kts 271°
2026-04-21 06:03 41.62692 18.07713 29591 ft 403 kts 271°
2026-04-21 06:03 41.62639 18.03959 29900 ft 404 kts 271°
2026-04-21 06:03 41.62583 18.00188 30171 ft 406 kts 271°
2026-04-21 06:04 41.62529 17.96406 30431 ft 408 kts 271°
2026-04-21 06:04 41.62475 17.92606 30704 ft 409 kts 271°
2026-04-21 06:04 41.62418 17.88852 31074 ft 407 kts 271°
2026-04-21 06:04 41.62356 17.85030 31469 ft 406 kts 271°
2026-04-21 06:05 41.62291 17.81262 31843 ft 404 kts 271°
2026-04-21 06:05 41.62226 17.77559 32161 ft 403 kts 271°
2026-04-21 06:05 41.62182 17.75028 32392 ft 403 kts 271°
2026-04-21 06:05 41.62100 17.70076 32863 ft 401 kts 271°
2026-04-21 06:06 41.62037 17.66352 33212 ft 400 kts 271°
2026-04-21 06:06 41.61973 17.62633 33556 ft 399 kts 271°
2026-04-21 06:06 41.61930 17.60129 33786 ft 399 kts 271°
2026-04-21 06:06 41.62037 17.56444 34078 ft 395 kts 279°
2026-04-21 06:07 41.62569 17.52855 34337 ft 393 kts 286°
2026-04-21 06:07 41.63288 17.49328 34560 ft 394 kts 286°
2026-04-21 06:07 41.64007 17.45786 34786 ft 394 kts 286°
2026-04-21 06:07 41.64717 17.42256 35034 ft 394 kts 286°
2026-04-21 06:08 41.65422 17.38722 35281 ft 393 kts 285°
2026-04-21 06:08 41.66125 17.35181 35537 ft 393 kts 286°
2026-04-21 06:08 41.66825 17.31657 35788 ft 392 kts 285°
2026-04-21 06:08 41.67524 17.28123 35925 ft 394 kts 285°
2026-04-21 06:09 41.68224 17.24587 35951 ft 394 kts 285°
2026-04-21 06:09 41.69623 17.17533 35952 ft 393 kts 285°
2026-04-21 06:10 41.71024 17.10452 35952 ft 393 kts 285°
2026-04-21 06:10 41.72413 17.03351 35952 ft 393 kts 286°
2026-04-21 06:11 41.74556 16.96650 35959 ft 393 kts 296°
2026-04-21 06:11 41.77061 16.90131 35982 ft 393 kts 296°
2026-04-21 06:12 41.79545 16.83580 35979 ft 394 kts 296°
2026-04-21 06:12 41.82024 16.77026 35976 ft 394 kts 296°
2026-04-21 06:13 41.84490 16.70490 35977 ft 394 kts 296°
2026-04-21 06:13 41.86963 16.63930 35973 ft 394 kts 296°
2026-04-21 06:14 41.89437 16.57363 35973 ft 394 kts 296°
2026-04-21 06:14 41.91913 16.50797 35970 ft 394 kts 296°
2026-04-21 06:15 41.94380 16.44215 35973 ft 394 kts 296°
2026-04-21 06:15 41.96839 16.37625 35974 ft 394 kts 296°
2026-04-21 06:16 41.99282 16.31078 35973 ft 394 kts 296°
2026-04-21 06:16 42.01746 16.24480 35973 ft 394 kts 296°
2026-04-21 06:17 42.04197 16.17877 35972 ft 394 kts 296°
2026-04-21 06:17 42.06637 16.11275 35973 ft 394 kts 296°
2026-04-21 06:18 42.09077 16.04669 35971 ft 394 kts 296°
2026-04-21 06:18 42.11502 15.98096 35982 ft 394 kts 296°
2026-04-21 06:19 42.13933 15.91478 35993 ft 393 kts 295°
2026-04-21 06:19 42.16362 15.84865 35987 ft 393 kts 295°
2026-04-21 06:20 42.18789 15.78241 35976 ft 393 kts 295°
2026-04-21 06:20 42.21207 15.71616 35974 ft 393 kts 295°
2026-04-21 06:21 42.23612 15.65010 35974 ft 393 kts 295°
2026-04-21 06:21 42.26024 15.58372 35970 ft 394 kts 295°
2026-04-21 06:22 42.28440 15.51718 35973 ft 394 kts 295°
2026-04-21 06:22 42.30869 15.45075 35975 ft 394 kts 297°
2026-04-21 06:23 42.33491 15.38609 35978 ft 394 kts 298°
2026-04-21 06:23 42.36211 15.32164 35983 ft 394 kts 298°
2026-04-21 06:24 42.38898 15.25687 35973 ft 394 kts 298°
2026-04-21 06:24 42.41549 15.19173 36002 ft 395 kts 298°
2026-04-21 06:25 42.44186 15.12644 35994 ft 395 kts 298°
2026-04-21 06:25 42.46825 15.06116 35988 ft 395 kts 298°
2026-04-21 06:26 42.49471 14.99582 35985 ft 395 kts 298°
2026-04-21 06:26 42.52105 14.93057 35990 ft 396 kts 298°
2026-04-21 06:27 42.54746 14.86494 35982 ft 396 kts 298°
2026-04-21 06:27 42.57390 14.79910 35984 ft 396 kts 297°
2026-04-21 06:28 42.60031 14.73321 35988 ft 397 kts 297°
2026-04-21 06:28 42.62648 14.66773 35989 ft 396 kts 297°
2026-04-21 06:29 42.65289 14.60180 35988 ft 396 kts 297°
2026-04-21 06:29 42.67915 14.53588 35989 ft 396 kts 297°
2026-04-21 06:30 42.70530 14.46985 35986 ft 396 kts 297°
2026-04-21 06:30 42.73143 14.40383 36000 ft 396 kts 297°
2026-04-21 06:31 42.75758 14.33784 35996 ft 396 kts 297°
2026-04-21 06:31 42.78371 14.27167 35991 ft 396 kts 297°
2026-04-21 06:32 42.80973 14.20548 35988 ft 397 kts 297°
2026-04-21 06:32 42.83565 14.13947 35989 ft 397 kts 297°
2026-04-21 06:33 42.86166 14.07312 35993 ft 397 kts 297°
2026-04-21 06:33 42.88771 14.00655 35996 ft 397 kts 297°
2026-04-21 06:34 42.91373 13.93983 35994 ft 398 kts 297°
2026-04-21 06:34 42.93964 13.87316 35991 ft 397 kts 297°
2026-04-21 06:35 42.96558 13.80637 35984 ft 397 kts 297°
2026-04-21 06:35 42.99144 13.73955 35984 ft 397 kts 297°
2026-04-21 06:36 43.01720 13.67269 36012 ft 398 kts 297°
2026-04-21 06:36 43.04304 13.60583 36002 ft 397 kts 297°
2026-04-21 06:37 43.06882 13.53890 35993 ft 397 kts 297°
2026-04-21 06:37 43.09430 13.47223 35981 ft 397 kts 297°
2026-04-21 06:38 43.11990 13.40518 35986 ft 398 kts 297°
2026-04-21 06:38 43.14554 13.33804 35987 ft 398 kts 297°
2026-04-21 06:39 43.16704 13.28178 35986 ft 398 kts 297°
2026-04-21 06:39 43.19259 13.21448 35987 ft 398 kts 297°
2026-04-21 06:40 43.21818 13.14701 35993 ft 399 kts 297°
2026-04-21 06:40 43.24376 13.07959 35992 ft 398 kts 297°
2026-04-21 06:41 43.26922 13.01211 35996 ft 398 kts 297°
2026-04-21 06:41 43.29463 12.94464 36023 ft 397 kts 297°
2026-04-21 06:42 43.31991 12.87722 36005 ft 397 kts 297°
2026-04-21 06:42 43.34512 12.80998 35996 ft 397 kts 297°
2026-04-21 06:43 43.37039 12.74247 35994 ft 397 kts 297°
2026-04-21 06:43 43.39561 12.67484 35997 ft 397 kts 297°
2026-04-21 06:44 43.42078 12.60723 36000 ft 397 kts 297°
2026-04-21 06:44 43.44591 12.53951 35997 ft 397 kts 297°
2026-04-21 06:45 43.47095 12.47177 35994 ft 397 kts 297°
2026-04-21 06:45 43.49606 12.40384 35982 ft 397 kts 296°
2026-04-21 06:46 43.52109 12.33598 35994 ft 396 kts 296°
2026-04-21 06:46 43.54588 12.26852 35995 ft 396 kts 296°
2026-04-21 06:47 43.57068 12.20077 35995 ft 395 kts 296°
2026-04-21 06:47 43.59545 12.13296 36008 ft 396 kts 296°
2026-04-21 06:48 43.62023 12.06508 36000 ft 395 kts 296°
2026-04-21 06:48 43.64493 11.99721 35988 ft 395 kts 296°
2026-04-21 06:49 43.66960 11.92932 35993 ft 395 kts 296°
2026-04-21 06:49 43.69421 11.86133 35990 ft 395 kts 296°
2026-04-21 06:50 43.71881 11.79327 35992 ft 395 kts 296°
2026-04-21 06:50 43.74313 11.72576 35989 ft 395 kts 296°
2026-04-21 06:51 43.76758 11.65763 35989 ft 395 kts 296°
2026-04-21 06:51 43.79195 11.58952 35987 ft 394 kts 296°
2026-04-21 06:52 43.81691 11.52171 35985 ft 394 kts 298°
2026-04-21 06:52 43.84404 11.45560 35984 ft 394 kts 299°
2026-04-21 06:53 43.87145 11.39025 35996 ft 394 kts 299°
2026-04-21 06:53 43.89855 11.32406 35990 ft 394 kts 298°
2026-04-21 06:54 43.92529 11.25760 35974 ft 394 kts 298°
2026-04-21 06:54 43.95196 11.19112 35960 ft 394 kts 298°
2026-04-21 06:55 43.97870 11.12451 35961 ft 395 kts 298°
2026-04-21 06:55 44.00381 11.05693 35947 ft 387 kts 285°
2026-04-21 06:55 44.00595 11.02039 35962 ft 379 kts 265°
2026-04-21 06:56 43.99908 10.98498 35955 ft 384 kts 251°
2026-04-21 06:56 43.98529 10.95274 35954 ft 395 kts 237°
2026-04-21 06:56 43.96514 10.92609 35958 ft 409 kts 220°
2026-04-21 06:56 43.93915 10.90857 35959 ft 426 kts 201°
2026-04-21 06:57 43.90910 10.90397 35954 ft 444 kts 180°
2026-04-21 06:57 43.87870 10.91454 35946 ft 460 kts 158°
2026-04-21 06:57 43.85206 10.93980 35953 ft 472 kts 135°
2026-04-21 06:57 43.83288 10.97670 35950 ft 475 kts 113°
2026-04-21 06:58 43.82386 11.02032 35939 ft 470 kts 91°
2026-04-21 06:58 43.82615 11.06474 35935 ft 458 kts 68°
2026-04-21 06:58 43.83918 11.10406 35949 ft 444 kts 45°
2026-04-21 06:58 43.86072 11.13312 35947 ft 424 kts 23°
2026-04-21 06:59 43.88718 11.14832 35969 ft 405 kts
2026-04-21 06:59 43.91480 11.15150 35947 ft 393 kts 349°
2026-04-21 06:59 43.94141 11.14532 35952 ft 383 kts 336°
2026-04-21 06:59 43.96528 11.13016 35955 ft 374 kts 321°
2026-04-21 07:00 43.98451 11.10648 35955 ft 368 kts 306°
2026-04-21 07:00 43.99809 11.07687 35961 ft 367 kts 291°
2026-04-21 07:00 44.00345 11.04185 35957 ft 369 kts 272°
2026-04-21 07:00 43.99985 11.00630 35944 ft 377 kts 256°
2026-04-21 07:01 43.98811 10.97343 35945 ft 388 kts 239°
2026-04-21 07:01 43.96857 10.94677 35930 ft 404 kts 219°
2026-04-21 07:01 43.91263 10.92923 35960 ft 445 kts 175°
2026-04-21 07:02 43.88296 10.94308 35937 ft 462 kts 153°
2026-04-21 07:02 43.85742 10.97184 35954 ft 472 kts 130°
2026-04-21 07:02 43.84066 11.01024 35950 ft 475 kts 108°
2026-04-21 07:02 43.83416 11.05474 35949 ft 470 kts 85°
2026-04-21 07:03 43.83900 11.09891 35946 ft 458 kts 63°
2026-04-21 07:03 43.85413 11.13651 35948 ft 441 kts 40°
2026-04-21 07:03 43.87706 11.16282 35969 ft 419 kts 18°
2026-04-21 07:03 43.90406 11.17471 35880 ft 398 kts 357°
2026-04-21 07:04 43.93102 11.17289 35116 ft 388 kts 341°
2026-04-21 07:04 43.95641 11.16022 34080 ft 389 kts 325°
2026-04-21 07:04 43.97762 11.13751 33301 ft 384 kts 309°
2026-04-21 07:04 43.99281 11.10738 32879 ft 383 kts 296°
2026-04-21 07:05 44.00420 11.07372 32490 ft 384 kts 295°
2026-04-21 07:05 44.01535 11.04003 32096 ft 383 kts 295°
2026-04-21 07:05 44.02614 11.00640 31704 ft 380 kts 291°
2026-04-21 07:05 44.03424 10.97140 31327 ft 378 kts 288°
2026-04-21 07:06 44.04170 10.93654 30951 ft 375 kts 288°
2026-04-21 07:06 44.04916 10.90186 30467 ft 374 kts 288°
2026-04-21 07:06 44.05667 10.86705 29833 ft 374 kts 288°
2026-04-21 07:06 44.06409 10.83268 29323 ft 368 kts 288°
2026-04-21 07:07 44.07142 10.79862 28839 ft 364 kts 288°
2026-04-21 07:07 44.07861 10.76514 28366 ft 359 kts 288°
2026-04-21 07:07 44.08566 10.73217 27898 ft 354 kts 288°
2026-04-21 07:07 44.09264 10.69955 27441 ft 349 kts 288°
2026-04-21 07:08 44.09950 10.66739 26998 ft 345 kts 288°
2026-04-21 07:08 44.10629 10.63553 26564 ft 341 kts 288°
2026-04-21 07:08 44.11294 10.60435 26141 ft 337 kts 288°
2026-04-21 07:08 44.11963 10.57283 25715 ft 335 kts 288°
2026-04-21 07:09 44.12613 10.54183 25311 ft 332 kts 287°
2026-04-21 07:09 44.13039 10.52138 25078 ft 331 kts 288°
2026-04-21 07:09 44.13883 10.48083 24540 ft 328 kts 288°
2026-04-21 07:09 44.14515 10.45054 24165 ft 324 kts 288°
2026-04-21 07:10 44.14937 10.43015 23907 ft 322 kts 288°
2026-04-21 07:10 44.15553 10.40027 23529 ft 319 kts 287°
2026-04-21 07:10 44.16156 10.37112 23130 ft 314 kts 288°
2026-04-21 07:10 44.16756 10.34210 22767 ft 309 kts 288°
2026-04-21 07:11 44.17351 10.31347 22414 ft 306 kts 288°
2026-04-21 07:11 44.17946 10.28507 22039 ft 305 kts 288°
2026-04-21 07:11 44.18543 10.25671 21683 ft 304 kts 288°
2026-04-21 07:11 44.19138 10.22847 21312 ft 304 kts 288°
2026-04-21 07:12 44.19729 10.20030 20966 ft 302 kts 287°
2026-04-21 07:12 44.20317 10.17215 20708 ft 301 kts 287°
2026-04-21 07:12 44.20901 10.14403 20455 ft 301 kts 287°
2026-04-21 07:12 44.21483 10.11593 20199 ft 301 kts 287°
2026-04-21 07:13 44.22061 10.08799 19946 ft 300 kts 287°
2026-04-21 07:13 44.22639 10.06001 19666 ft 298 kts 287°
2026-04-21 07:13 44.23217 10.03209 18936 ft 306 kts 287°
2026-04-21 07:13 44.23818 10.00312 18173 ft 315 kts 287°
2026-04-21 07:14 44.24430 9.97355 17551 ft 317 kts 287°
2026-04-21 07:14 44.25039 9.94406 17044 ft 317 kts 287°
2026-04-21 07:14 44.25638 9.91482 16582 ft 316 kts 287°
2026-04-21 07:14 44.26247 9.88505 16111 ft 315 kts 287°
2026-04-21 07:15 44.26842 9.85603 15659 ft 315 kts 287°
2026-04-21 07:15 44.27445 9.82666 15194 ft 315 kts 286°
2026-04-21 07:15 44.28048 9.79723 14754 ft 314 kts 286°
2026-04-21 07:15 44.28645 9.76798 14317 ft 313 kts 286°
2026-04-21 07:16 44.29240 9.73879 13891 ft 312 kts 286°
2026-04-21 07:16 44.29832 9.70962 13422 ft 311 kts 286°
2026-04-21 07:16 44.30419 9.68065 12941 ft 309 kts 287°
2026-04-21 07:16 44.31004 9.65182 12519 ft 306 kts 286°
2026-04-21 07:17 44.31575 9.62356 12261 ft 298 kts 286°
2026-04-21 07:17 44.32131 9.59608 12005 ft 290 kts 286°
2026-04-21 07:17 44.32694 9.56921 11780 ft 283 kts 287°
2026-04-21 07:17 44.33265 9.54342 11665 ft 273 kts 288°
2026-04-21 07:18 44.33555 9.51774 11521 ft 263 kts 268°
2026-04-21 07:18 44.33127 9.49346 11401 ft 255 kts 247°
2026-04-21 07:18 44.32098 9.47387 11296 ft 249 kts 226°
2026-04-21 07:18 44.30743 9.45907 11169 ft 245 kts 221°
2026-04-21 07:19 44.29325 9.44586 11032 ft 246 kts 208°
2026-04-21 07:19 44.27672 9.44090 10916 ft 245 kts 183°
2026-04-21 07:19 44.25988 9.44588 10595 ft 253 kts 157°
2026-04-21 07:19 44.24545 9.45955 10246 ft 255 kts 144°
2026-04-21 07:20 44.23112 9.47412 9872 ft 254 kts 154°
2026-04-21 07:20 44.21440 9.47954 9473 ft 245 kts 188°
2026-04-21 07:20 44.19872 9.47234 9112 ft 234 kts 219°
2026-04-21 07:20 44.18777 9.45652 8854 ft 225 kts 236°
2026-04-21 07:21 44.17832 9.43911 8593 ft 224 kts 236°
2026-04-21 07:21 44.16892 9.42172 8341 ft 224 kts 236°
2026-04-21 07:21 44.16118 9.40323 8154 ft 220 kts 258°
2026-04-21 07:21 44.16132 9.38240 8032 ft 216 kts 290°
2026-04-21 07:22 44.16959 9.36534 7903 ft 215 kts 321°
2026-04-21 07:22 44.18139 9.35292 7783 ft 216 kts 323°
2026-04-21 07:22 44.19345 9.34032 7664 ft 216 kts 323°
2026-04-21 07:22 44.20542 9.32776 7524 ft 216 kts 323°
2026-04-21 07:23 44.21743 9.31515 7415 ft 215 kts 323°
2026-04-21 07:23 44.22943 9.30249 7289 ft 215 kts 323°
2026-04-21 07:23 44.24137 9.28987 7157 ft 215 kts 323°
2026-04-21 07:23 44.25334 9.27720 7050 ft 216 kts 323°
2026-04-21 07:24 44.26490 9.26392 6931 ft 216 kts 314°
2026-04-21 07:24 44.27342 9.24664 6864 ft 217 kts 296°
2026-04-21 07:24 44.27844 9.22666 6823 ft 219 kts 288°
2026-04-21 07:24 44.28252 9.20619 6787 ft 219 kts 285°
2026-04-21 07:25 44.28581 9.18567 6717 ft 219 kts 283°
2026-04-21 07:25 44.28880 9.16474 6652 ft 219 kts 283°
2026-04-21 07:25 44.29181 9.14386 6563 ft 219 kts 283°
2026-04-21 07:25 44.29493 9.12301 6439 ft 219 kts 284°
2026-04-21 07:26 44.29832 9.10219 6300 ft 219 kts 284°
2026-04-21 07:26 44.30187 9.08155 6174 ft 218 kts 285°
2026-04-21 07:26 44.30536 9.06101 6047 ft 217 kts 284°
2026-04-21 07:26 44.30873 9.04043 5912 ft 217 kts 285°
2026-04-21 07:27 44.31217 9.01996 5747 ft 216 kts 285°
2026-04-21 07:27 44.31571 8.99954 5564 ft 216 kts 286°
2026-04-21 07:27 44.31930 8.97923 5362 ft 215 kts 285°
2026-04-21 07:27 44.32288 8.95888 5158 ft 215 kts 286°
2026-04-21 07:28 44.32660 8.93860 4956 ft 215 kts 286°
2026-04-21 07:28 44.33042 8.91839 4813 ft 214 kts 286°
2026-04-21 07:28 44.33416 8.89878 4493 ft 205 kts 286°
2026-04-21 07:28 44.33773 8.87987 4173 ft 198 kts 285°
2026-04-21 07:29 44.34134 8.86162 3854 ft 192 kts 288°
2026-04-21 07:29 44.34521 8.84401 3537 ft 188 kts 289°
2026-04-21 07:29 44.34920 8.82671 3192 ft 186 kts 289°
2026-04-21 07:29 44.35314 8.80977 2870 ft 184 kts 289°
2026-04-21 07:30 44.35704 8.79295 2567 ft 180 kts 289°
2026-04-21 07:30 44.36081 8.77651 2344 ft 173 kts 289°
2026-04-21 07:30 44.36429 8.76123 2163 ft 166 kts 289°
2026-04-21 07:30 44.36782 8.74568 2012 ft 162 kts 290°
2026-04-21 07:31 44.37383 8.73267 1797 ft 160 kts 319°
2026-04-21 07:31 44.38348 8.72568 1572 ft 156 kts 349°
2026-04-21 07:31 44.39425 8.72657 1433 ft 158 kts 17°
2026-04-21 07:31 44.40402 8.73339 1362 ft 158 kts 34°
2026-04-21 07:32 44.41239 8.74343 1292 ft 159 kts 45°
2026-04-21 07:32 44.41908 8.75574 1107 ft 159 kts 58°
2026-04-21 07:32 44.42271 8.77018 957 ft 159 kts 79°
2026-04-21 07:32 44.42175 8.78662 1351 ft 173 kts 103°
2026-04-21 07:33 44.41706 8.80184 1958 ft 174 kts 126°
2026-04-21 07:33 44.40760 8.81235 2207 ft 177 kts 156°
2026-04-21 07:33 44.39525 8.81554 2340 ft 187 kts 179°
2026-04-21 07:33 44.38207 8.81518 2581 ft 191 kts 181°
2026-04-21 07:34 44.36871 8.81450 2787 ft 192 kts 182°
2026-04-21 07:34 44.35530 8.81356 2992 ft 194 kts 182°
2026-04-21 07:34 44.34175 8.81267 3004 ft 195 kts 182°
2026-04-21 07:34 44.32824 8.81172 2989 ft 194 kts 182°
2026-04-21 07:35 44.31467 8.81076 2991 ft 196 kts 183°
2026-04-21 07:35 44.30032 8.80957 2967 ft 214 kts 183°
2026-04-21 07:35 44.28532 8.80833 2995 ft 217 kts 183°
2026-04-21 07:35 44.27018 8.80715 3015 ft 218 kts 181°
2026-04-21 07:36 44.25506 8.80597 3033 ft 217 kts 181°
2026-04-21 07:36 44.23995 8.80517 3048 ft 217 kts 180°
2026-04-21 07:36 44.22483 8.80476 3048 ft 217 kts 180°
2026-04-21 07:36 44.20972 8.80434 3039 ft 217 kts 179°
2026-04-21 07:37 44.19465 8.80413 3037 ft 217 kts 179°
2026-04-21 07:37 44.17960 8.80407 3041 ft 217 kts 179°
2026-04-21 07:37 44.16448 8.80387 3042 ft 217 kts 179°
2026-04-21 07:37 44.14934 8.80359 3047 ft 217 kts 179°
2026-04-21 07:38 44.13424 8.80349 3057 ft 217 kts 178°
2026-04-21 07:38 44.11980 8.80804 3043 ft 214 kts 148°
2026-04-21 07:38 44.10998 8.82297 3040 ft 211 kts 113°
2026-04-21 07:38 44.10824 8.84276 3039 ft 209 kts 78°
2026-04-21 07:39 44.11517 8.86029 3054 ft 210 kts 43°
2026-04-21 07:39 44.12819 8.86898 3061 ft 212 kts 10°
2026-04-21 07:39 44.14299 8.86986 3067 ft 213 kts
2026-04-21 07:39 44.15752 8.86631 3058 ft 215 kts 339°
2026-04-21 07:40 44.17016 8.85506 3067 ft 217 kts 322°
2026-04-21 07:40 44.18115 8.84062 3072 ft 217 kts 315°
2026-04-21 07:40 44.19110 8.82474 3075 ft 217 kts 309°
2026-04-21 07:40 44.20005 8.80779 3089 ft 218 kts 307°
2026-04-21 07:41 44.20590 8.79642 3068 ft 218 kts 307°
2026-04-21 07:41 44.21754 8.77361 3049 ft 217 kts 306°
2026-04-21 07:41 44.22346 8.76201 3051 ft 217 kts 307°
2026-04-21 07:41 44.23241 8.74501 3071 ft 218 kts 308°
2026-04-21 07:42 44.24168 8.72831 3073 ft 218 kts 310°
2026-04-21 07:42 44.25121 8.71186 3071 ft 215 kts 310°
2026-04-21 07:42 44.26076 8.69593 3074 ft 213 kts 311°
2026-04-21 07:42 44.27028 8.68015 3062 ft 212 kts 311°
2026-04-21 07:43 44.27981 8.66443 3043 ft 212 kts 312°
2026-04-21 07:43 44.28941 8.64868 3040 ft 211 kts 312°
2026-04-21 07:43 44.29884 8.63331 3034 ft 211 kts 313°
2026-04-21 07:43 44.31036 8.62093 3002 ft 209 kts 336°
2026-04-21 07:44 44.32381 8.61730 3037 ft 185 kts
2026-04-21 07:44 44.33508 8.62276 2994 ft 166 kts 35°
2026-04-21 07:44 44.34342 8.63360 2928 ft 161 kts 41°
2026-04-21 07:44 44.35182 8.64384 2823 ft 159 kts 39°
2026-04-21 07:45 44.36030 8.65389 2665 ft 159 kts 40°
2026-04-21 07:45 44.36848 8.66423 2478 ft 158 kts 40°
2026-04-21 07:45 44.37652 8.67463 2238 ft 157 kts 41°
2026-04-21 07:45 44.38455 8.68513 2026 ft 158 kts 43°
2026-04-21 07:46 44.39256 8.69572 1845 ft 158 kts 43°
2026-04-21 07:46 44.40054 8.70618 1675 ft 156 kts 42°
2026-04-21 07:46 44.40828 8.71701 1455 ft 158 kts 46°
2026-04-21 07:46 44.41563 8.72841 1294 ft 157 kts 47°
2026-04-21 07:47 44.42273 8.74003 1133 ft 157 kts 52°
2026-04-21 07:47 44.42716 8.75393 1022 ft 158 kts 78°
2026-04-21 07:47 44.42621 8.76922 918 ft 161 kts 106°
2026-04-21 07:47 44.42307 8.78423 723 ft 160 kts 104°
2026-04-21 07:48 44.42025 8.79930 484 ft 160 kts 105°
2026-04-21 07:48 44.41735 8.81430 249 ft 160 kts 105°
2026-04-21 07:48 44.41439 8.82935 33 ft 159 kts 106°
2026-04-21 07:48 44.41177 8.84271 22 ft 121 kts 105°
2026-04-21 07:49 44.41004 8.85176 17 ft 74 kts 105°
2026-04-21 07:49 44.40909 8.85651 23 ft 32 kts 104°
2026-04-21 07:49 44.40861 8.85897 22 ft 13 kts 105°
2026-04-21 07:49 44.40875 8.85992 23 ft 10 kts 68°
2026-04-21 07:50 44.40840 8.86025 22 ft 8 kts 230°
2026-04-21 07:50 44.40851 8.85941 25 ft 10 kts 286°
2026-04-21 07:50 44.40872 8.85835 22 ft 13 kts 285°
2026-04-21 07:50 44.40897 8.85706 22 ft 15 kts 285°
2026-04-21 07:51 44.40928 8.85546 20 ft 19 kts 285°
2026-04-21 07:51 44.40964 8.85359 20 ft 21 kts 285°
2026-04-21 07:51 44.40998 8.85190 17 ft 11 kts 286°
2026-04-21 07:51 44.41040 8.85168 17 ft 8 kts 34°
2026-04-21 07:52 44.41079 8.85223 19 ft 8 kts 31°
2026-04-21 07:52 44.41134 8.85245 20 ft 8 kts 15°
2026-04-21 07:52 44.41194 8.85267 20 ft 10 kts 15°
2026-04-21 07:52 44.41263 8.85278 20 ft 10 kts 346°
2026-04-21 07:53 44.41307 8.85197 20 ft 12 kts 285°
2026-04-21 07:53 44.41329 8.85080 21 ft 13 kts 285°
2026-04-21 07:53 44.41352 8.84948 20 ft 15 kts 282°
2026-04-21 07:53 44.41380 8.84803 20 ft 16 kts 285°
2026-04-21 07:54 44.41407 8.84657 20 ft 12 kts 285°
2026-04-21 07:54 44.41451 8.84653 20 ft 8 kts 47°
2026-04-21 07:54 44.41489 8.84724 20 ft 10 kts 52°
2026-04-21 07:54 44.41515 8.84806 20 ft 9 kts 97°
2026-04-21 07:55 44.41496 8.84899 21 ft 10 kts 105°
2026-04-21 07:55 44.41489 8.84934 20 ft 1 kts 104°